Wind_Speed
7 6 6 6 6 7 7 8 8 8 9 10 12 14 15 16 17 17 17 18 18 18 17 17 17 16 15 17 16 16 15 15 14 12 14 13 14 16 17 16 17 19 19 21 21 21 22
5 7 8 7 6 7 8 8 9 10 11 11 12 13 14 15 17 18 18 18 19 19 19 19 18 18 18 16 15 15 15 15 16 16 14 14 16 16 17 18 21 22 22 23 22 21 22
7 7 6 6 8 9 10 10 11 12 12 13 14 15 16 16 18 19 19 19 19 19 19 19 20 19 20 18 16 17 17 17 17 16 17 16 16 18 20 20 22 24 24 25 25 24 26
9 10 11 10 11 10 11 12 13 14 15 15 16 16 17 18 18 19 20 20 20 21 21 21 22 21 21 21 20 17 14 12 12 13 15 17 19 19 21 22 25 24 27 30 28 25 25
12 13 14 14 15 14 15 16 17 17 18 17 18 19 20 20 21 21 22 21 20 20 20 20 22 23 24 16 11 15 14 14 13 14 15 16 17 19 21 23 24 25 28 31 30 24 22
14 15 16 17 18 20 20 20 20 21 21 21 22 21 22 21 22 23 23 24 23 23 22 21 23 18 15 18 18 21 24 23 24 23 22 20 19 20 24 26 25 25 27 26 22 18 25
19 20 21 23 24 24 25 25 25 24 24 24 23 24 24 25 25 26 26 25 25 24 23 22 23 26 26 27 25 24 25 27 27 27 25 22 23 30 26 24 24 23 25 30 32 30 36
24 25 27 28 29 30 31 32 32 31 31 30 28 26 26 28 28 27 27 28 28 29 26 20 26 30 32 32 30 28 28 28 28 29 25 28 35 27 24 25 26 25 28 35 34 31 32
27 29 30 32 34 35 35 35 36 36 36 35 34 33 30 29 30 30 29 28 29 33 34 22 29 33 30 27 28 27 20 20 21 23 26 30 30 24 23 21 27 30 35 38 39 36 39
32 33 33 34 35 37 38 38 38 39 39 38 37 36 36 33 32 31 29 29 28 28 27 20 11 12 10 12 13 12 13 13 16 16 18 21 18 21 26 28 29 36 33 35 37 36 27
33 35 36 37 39 40 40 40 41 41 40 41 39 37 37 36 36 34 31 28 25 22 7 8 8 13 11 8 7 9 12 15 17 20 17 15 17 18 20 22 21 29 25 28 27 29 35
37 40 42 45 44 43 42 41 41 42 41 39 38 37 36 36 35 34 32 28 24 8 9 7 8 9 10 11 12 12 14 14 15 20 22 27 25 28 27 28 24 26 24 23 23 25 13
46 48 49 47 44 41 39 40 41 41 41 39 37 34 32 33 31 30 30 26 10 9 5 6 9 11 15 16 17 19 23 22 18 18 25 28 30 29 26 29 30 29 20 4 3 4 11
50 46 43 40 37 36 34 36 37 38 39 38 37 34 31 30 30 27 24 21 13 11 13 15 23 23 22 20 24 18 20 21 21 20 26 18 16 16 17 20 24 20 29 10 7 5 5
42 39 37 36 34 34 34 34 36 37 37 37 36 34 31 27 27 25 22 19 12 10 13 20 29 29 23 16 14 13 9 14 10 5 10 15 10 6 24 28 22 15 21 27 28 26 11
36 35 35 35 37 38 38 38 38 38 38 37 34 31 26 21 19 20 19 23 15 14 27 23 18 14 20 21 21 20 15 10 6 11 21 18 31 21 13 13 20 26 18 7 12 4 8
34 34 34 35 36 37 37 38 38 37 33 33 30 27 22 18 17 18 22 25 23 23 25 24 25 27 27 28 24 26 24 21 24 29 27 30 30 32 31 21 19 21 27 22 18 19 9
37 37 36 37 36 35 34 32 31 30 27 28 27 24 19 18 19 18 20 22 19 16 17 23 28 28 29 29 24 14 18 21 24 29 31 32 35 37 37 40 41 39 34 33 27 19 36
38 39 38 37 35 33 31 29 28 29 27 25 25 26 22 22 19 19 19 20 20 19 16 18 16 16 17 19 21 14 10 14 17 19 15 19 14 20 19 16 17 23 25 16 25 30 40
38 37 37 36 34 32 31 30 29 27 27 25 24 19 20 22 20 17 14 19 19 20 24 23 24 22 24 26 24 18 20 21 20 22 21 23 22 24 26 33 34 38 45 42 34 23 31
40 39 37 35 35 34 31 30 29 27 26 25 25 23 21 18 14 15 18 19 21 22 21 18 22 19 25 22 20 23 18 20 20 24 27 30 32 32 39 41 42 47 46 43 42 46 43
40 39 38 36 34 34 32 31 31 27 25 27 26 24 23 24 20 19 18 22 21 16 20 20 23 18 17 24 26 28 27 25 33 35 33 29 30 32 43 44 46 44 49 46 46 48 51
41 40 39 36 34 32 31 31 30 28 27 27 27 24 25 30 25 23 23 21 23 26 24 22 16 21 23 26 28 29 28 31 35 36 32 32 32 27 39 40 33 28 38 32 31 31 36
43 43 41 40 38 34 31 31 31 30 30 27 28 26 27 34 30 27 25 24 24 23 27 26 28 27 32 28 30 28 30 32 31 31 31 33 30 30 27 31 10 20 16 16 17 21 21
46 44 41 41 39 36 34 31 29 29 31 30 30 29 31 35 34 33 28 26 26 27 28 24 24 24 29 25 22 23 29 22 9 15 15 12 9 13 5 11 26 22 22 23 17 17 18
47 45 44 40 35 28 27 28 29 28 27 32 33 30 31 34 37 31 27 25 27 26 25 29 26 26 18 16 17 8 6 16 11 8 7 11 12 14 18 9 4 3 12 15 13 18 14
37 33 32 32 29 29 30 30 28 25 22 29 35 31 32 35 36 35 32 29 26 25 27 27 22 18 19 17 15 17 21 20 9 6 9 11 23 22 24 12 6 11 18 22 5 12 26
32 31 31 29 27 28 30 31 27 23 20 27 32 33 32 35 36 33 31 31 29 27 24 29 32 26 19 14 9 10 11 6 8 13 12 25 10 5 5 5 5 12 26 17 18 19 21
29 30 29 28 25 27 30 29 27 24 21 25 31 31 30 31 29 30 31 30 28 26 26 27 40 23 16 9 8 10 14 25 31 28 16 12 10 6 7 7 15 19 17 18 19 18 14
Wind_Direction
27 24 16 1 353 344 336 332 324 319 313 307 303 302 302 303 304 306 308 310 310 310 311 311 311 311 310 313 316 313 312 308 302 286 274 269 262 260 258 254 251 262 266 269 271 275 271
1 359 352 342 332 325 323 319 315 314 312 310 307 305 305 306 306 306 306 306 304 304 304 304 303 303 298 301 303 301 302 302 298 292 285 271 263 266 265 261 262 273 277 277 274 271 274
321 325 323 319 315 313 310 308 307 307 305 303 302 302 303 303 304 305 303 301 300 301 300 299 297 296 294 298 295 291 289 286 285 280 280 283 271 260 262 266 265 267 272 274 277 277 274
303 297 301 299 292 293 294 295 295 294 294 294 294 295 297 297 297 296 295 297 297 298 297 296 294 293 293 295 289 283 279 279 275 270 269 268 271 267 263 265 265 270 273 273 278 280 278
298 295 296 300 299 293 292 288 288 288 288 288 291 294 297 298 297 294 292 291 289 288 289 290 290 290 291 286 280 280 277 280 272 276 268 262 259 260 264 261 263 267 268 276 283 287 280
299 298 296 297 295 294 294 295 295 292 290 290 290 295 296 297 296 294 292 292 289 287 286 286 286 281 277 277 274 277 278 278 275 271 267 264 260 257 258 248 249 270 266 281 276 285 290
308 306 305 303 301 298 296 295 294 290 289 290 290 291 290 292 293 293 294 291 290 286 281 277 275 273 273 274 274 272 275 274 271 268 266 264 257 258 275 279 275 271 267 266 264 268 281
304 304 302 301 299 297 296 296 294 292 291 290 290 291 292 293 294 294 301 303 302 297 284 269 274 276 273 275 274 273 271 270 267 266 261 256 261 275 274 264 263 261 265 268 275 276 277
303 301 300 298 297 296 294 293 293 294 293 292 292 292 293 295 297 299 300 303 305 308 307 291 284 274 271 268 266 266 264 261 261 261 257 258 267 272 271 256 251 250 254 265 269 281 276
299 297 295 293 292 291 292 291 289 288 289 290 291 292 293 293 295 297 301 305 309 315 312 308 281 273 270 255 252 259 256 259 266 272 268 266 274 257 255 256 254 265 268 267 271 275 268
296 297 298 299 299 298 295 292 289 287 287 291 289 289 290 291 293 298 300 304 312 327 328 298 271 260 274 251 252 266 276 279 280 272 261 261 275 278 268 283 271 265 274 272 274 267 272
300 300 300 300 299 296 295 293 290 290 289 286 287 288 290 291 291 293 296 300 309 300 254 276 271 284 281 275 281 285 293 289 291 283 274 281 279 271 273 278 272 264 265 268 265 264 265
302 300 298 298 295 293 293 292 291 291 289 288 286 286 284 282 284 285 288 290 291 210 274 273 282 283 276 288 293 301 305 298 294 299 294 290 282 283 274 268 266 259 246 277 264 199 242
301 300 299 298 295 294 295 293 292 291 292 292 292 292 288 288 284 279 277 277 243 252 221 266 284 277 277 281 306 302 295 300 300 298 288 291 298 268 272 274 270 272 240 208 241 224 266
304 303 302 300 299 299 298 295 294 294 293 292 293 293 292 290 283 277 268 245 248 257 252 259 263 280 291 268 278 290 298 305 291 299 269 305 267 222 290 293 283 258 232 259 264 278 290
303 303 305 306 306 304 302 299 295 293 292 293 294 292 295 288 275 261 245 244 237 233 251 265 285 259 267 269 280 282 293 261 244 277 300 291 299 294 289 282 258 253 257 240 220 272 254
303 304 306 305 303 302 301 299 298 297 297 297 297 300 298 293 278 258 243 249 261 260 258 263 269 270 273 282 281 279 267 262 266 274 279 284 283 279 281 267 269 266 263 251 257 243 258
305 305 304 303 304 304 303 300 298 296 296 297 298 301 292 291 286 273 272 270 282 278 258 263 268 268 272 277 277 277 270 283 278 278 281 272 286 283 281 281 279 269 265 264 237 259 254
303 304 304 305 305 303 299 297 296 297 298 295 295 294 291 284 277 276 276 269 268 267 262 264 255 269 265 267 287 277 256 271 272 272 290 291 274 300 295 290 279 255 248 264 270 274 267
301 301 302 302 300 298 295 294 293 292 292 292 293 290 289 287 281 278 279 280 270 268 266 262 268 271 276 281 278 268 282 286 272 277 286 283 279 266 269 273 281 283 281 283 281 265 271
300 300 299 297 295 292 289 287 285 282 280 279 279 284 282 274 271 279 285 282 285 279 269 272 269 273 291 278 272 283 290 283 285 288 278 277 279 285 285 287 287 286 284 279 283 279 261
298 298 298 298 293 289 285 280 277 275 269 267 268 274 276 272 273 273 268 270 283 286 273 274 279 290 281 271 294 291 288 283 294 299 299 289 280 285 282 288 287 281 284 285 280 280 275
295 295 295 292 289 284 279 275 272 266 258 261 265 265 267 275 275 273 272 276 278 282 277 287 286 284 281 284 289 288 285 290 292 291 287 280 274 278 276 290 291 278 280 280 281 282 269
290 289 287 286 285 282 276 270 265 259 254 252 261 260 260 267 271 270 276 280 281 284 285 285 287 287 283 283 287 284 289 291 289 285 275 270 271 273 277 292 272 287 270 285 294 296 282
284 283 282 280 280 280 278 272 265 257 249 245 251 253 259 264 269 272 279 282 280 281 281 287 289 289 289 299 297 300 304 306 289 291 276 283 257 247 244 269 287 273 295 311 324 306 289
283 278 276 276 277 271 271 273 270 260 252 244 244 248 254 260 268 276 277 283 287 292 285 291 290 292 287 284 301 267 274 283 277 276 294 295 302 254 286 275 271 307 344 336 302 277 302
285 278 279 281 275 267 269 273 275 266 253 246 243 241 250 256 262 264 276 282 287 286 290 294 285 277 276 286 276 268 272 263 245 246 291 299 309 276 276 265 260 260 331 339 320 309 321
284 280 280 278 274 265 261 267 272 256 250 247 243 241 247 256 260 267 274 279 282 283 269 281 282 277 267 263 242 250 257 255 287 290 285 300 279 260 276 263 252 292 322 340 318 319 320
278 281 280 278 276 270 260 264 268 244 245 251 245 241 248 255 258 266 272 280 278 274 276 281 261 262 256 219 236 261 257 283 289 285 287 257 247 271 274 260 282 304 320 324 319 319 322
Height
3174 3173 3172 3170 3169 3167 3166 3165 3164 3163 3161 3160 3159 3157 3155 3153 3151 3150 3148 3147 3145 3143 3141 3140 3138 3136 3135 3136 3135 3133 3131 3130 3129 3128 3127 3126 3127 3126 3126 3126 3125 3124 3125 3124 3124 3125 3124
3173 3172 3171 3170 3169 3167 3165 3163 3161 3160 3158 3157 3155 3154 3152 3150 3148 3146 3145 3143 3142 3140 3138 3136 3134 3133 3132 3131 3129 3127 3126 3126 3125 3125 3124 3123 3122 3122 3122 3122 3122 3121 3120 3119 3119 3120 3119
3172 3171 3169 3167 3166 3164 3163 3161 3160 3158 3156 3154 3152 3150 3148 3146 3145 3143 3141 3139 3138 3136 3134 3132 3131 3129 3127 3127 3124 3122 3121 3120 3120 3120 3120 3120 3119 3119 3117 3118 3118 3116 3115 3114 3113 3114 3113
3171 3170 3168 3166 3164 3162 3160 3158 3156 3155 3153 3151 3149 3147 3145 3143 3141 3138 3136 3135 3133 3132 3130 3128 3126 3124 3122 3121 3119 3117 3116 3115 3115 3114 3114 3114 3115 3115 3114 3114 3112 3112 3110 3106 3107 3108 3107
3169 3167 3165 3163 3162 3159 3157 3155 3153 3151 3149 3147 3145 3143 3142 3140 3137 3135 3132 3130 3128 3126 3124 3122 3121 3118 3116 3114 3114 3113 3112 3111 3110 3110 3109 3108 3108 3109 3109 3108 3107 3106 3102 3101 3101 3101 3100
3166 3165 3163 3162 3160 3157 3155 3152 3150 3147 3145 3143 3141 3139 3137 3134 3132 3129 3127 3125 3121 3120 3118 3116 3114 3115 3112 3110 3108 3107 3106 3105 3105 3104 3104 3104 3103 3102 3101 3100 3099 3098 3096 3096 3095 3097 3093
3165 3163 3161 3158 3156 3154 3151 3149 3146 3142 3140 3138 3136 3134 3130 3128 3125 3122 3122 3120 3119 3116 3112 3111 3108 3104 3102 3102 3101 3101 3100 3099 3098 3098 3097 3097 3096 3092 3094 3095 3094 3093 3091 3089 3089 3092 3088
3161 3159 3157 3154 3152 3150 3147 3145 3142 3138 3136 3133 3130 3128 3126 3124 3120 3117 3114 3111 3109 3107 3104 3104 3101 3096 3094 3093 3093 3092 3093 3093 3091 3090 3091 3089 3084 3089 3089 3088 3087 3086 3083 3079 3080 3082 3081
3156 3154 3151 3148 3145 3143 3140 3137 3134 3131 3130 3127 3126 3124 3121 3118 3116 3113 3111 3108 3104 3099 3095 3100 3092 3087 3085 3086 3084 3085 3086 3085 3084 3083 3083 3081 3079 3080 3081 3081 3079 3078 3078 3075 3076 3076 3071
3150 3148 3145 3143 3139 3136 3133 3130 3126 3123 3121 3119 3118 3116 3114 3113 3114 3108 3106 3104 3101 3097 3091 3085 3082 3079 3080 3080 3081 3081 3081 3083 3081 3080 3078 3075 3075 3073 3073 3071 3074 3072 3073 3073 3071 3072 3065
3145 3142 3139 3136 3132 3128 3125 3122 3119 3116 3113 3112 3110 3108 3107 3105 3104 3103 3103 3100 3099 3098 3095 3082 3079 3078 3078 3080 3079 3079 3079 3078 3078 3077 3076 3072 3070 3070 3069 3066 3068 3061 3065 3065 3065 3064 3062
3138 3135 3131 3128 3124 3120 3116 3112 3109 3107 3105 3102 3101 3101 3101 3100 3098 3097 3096 3096 3097 3102 3088 3079 3077 3076 3077 3077 3077 3075 3076 3075 3073 3071 3069 3066 3068 3065 3064 3064 3064 3061 3059 3057 3057 3058 3051
3130 3126 3122 3118 3114 3110 3106 3103 3099 3097 3095 3093 3091 3091 3090 3089 3090 3089 3089 3091 3096 3090 3082 3077 3074 3073 3073 3074 3072 3072 3071 3072 3072 3067 3062 3059 3057 3058 3058 3057 3058 3058 3058 3055 3052 3051 3033
3121 3116 3112 3108 3104 3101 3097 3094 3092 3088 3086 3084 3083 3082 3083 3081 3081 3081 3081 3085 3086 3077 3075 3071 3069 3068 3068 3070 3069 3068 3067 3065 3065 3064 3057 3052 3046 3051 3051 3053 3051 3049 3052 3052 3045 3039 3027
3111 3107 3104 3101 3097 3094 3090 3086 3084 3082 3079 3076 3074 3074 3075 3075 3073 3074 3076 3075 3073 3072 3070 3067 3064 3065 3065 3067 3067 3064 3062 3062 3062 3060 3059 3053 3046 3045 3045 3047 3050 3045 3044 3047 3043 3035 3028
3104 3100 3097 3094 3090 3087 3085 3081 3077 3075 3071 3067 3066 3066 3067 3067 3065 3066 3066 3063 3063 3064 3063 3063 3062 3063 3060 3061 3063 3062 3061 3060 3058 3056 3055 3052 3039 3041 3041 3042 3042 3041 3042 3042 3042 3037 3024
3095 3091 3087 3085 3082 3079 3077 3073 3071 3069 3067 3063 3061 3060 3060 3060 3060 3059 3057 3055 3055 3058 3057 3058 3057 3055 3055 3055 3055 3055 3054 3054 3054 3051 3051 3047 3042 3033 3036 3036 3038 3038 3035 3037 3035 3028 3017
3086 3083 3080 3077 3074 3071 3068 3067 3064 3061 3061 3057 3056 3056 3054 3054 3058 3053 3049 3049 3051 3050 3053 3052 3049 3049 3049 3047 3045 3046 3045 3048 3047 3044 3042 3044 3036 3024 3025 3029 3030 3028 3026 3028 3025 3015 3008
3077 3073 3072 3070 3068 3065 3062 3060 3058 3056 3054 3053 3050 3049 3051 3048 3047 3047 3047 3045 3044 3043 3045 3043 3042 3041 3041 3042 3043 3037 3038 3040 3040 3038 3036 3036 3033 3023 3016 3021 3019 3015 3018 3017 3015 3011 2994
3068 3066 3063 3061 3060 3057 3055 3054 3052 3050 3047 3047 3046 3044 3045 3044 3043 3043 3041 3041 3040 3039 3039 3040 3038 3039 3037 3035 3034 3031 3031 3032 3032 3032 3031 3029 3027 3026 3015 3015 3019 3017 3012 3009 3010 3001 2991
3062 3059 3056 3054 3051 3049 3048 3046 3045 3044 3042 3041 3040 3038 3039 3037 3039 3039 3040 3037 3037 3035 3033 3033 3032 3035 3034 3032 3028 3025 3025 3025 3026 3027 3025 3022 3016 3019 3008 3005 3006 3004 2999 2996 2996 2990 2986
3052 3049 3046 3045 3043 3042 3040 3037 3037 3037 3036 3034 3035 3034 3033 3031 3034 3033 3034 3031 3031 3032 3029 3026 3025 3027 3027 3024 3025 3023 3019 3019 3017 3017 3016 3014 3008 3008 2998 2999 2995 2990 2986 2985 2983 2977 2971
3042 3039 3037 3034 3033 3031 3030 3029 3029 3029 3027 3025 3027 3029 3027 3023 3026 3026 3025 3024 3025 3026 3024 3024 3021 3019 3017 3019 3017 3018 3015 3011 3009 3007 3008 3006 3003 3000 2988 2991 2988 2980 2976 2972 2969 2968 2963
3030 3027 3025 3023 3022 3021 3021 3020 3019 3020 3019 3020 3020 3021 3020 3016 3018 3020 3020 3020 3018 3020 3018 3017 3017 3014 3012 3009 3007 3008 3008 3004 3001 2998 2998 2995 2996 2995 2987 2985 2981 2972 2969 2965 2962 2959 2957
3017 3015 3013 3011 3010 3010 3010 3010 3010 3010 3010 3010 3012 3013 3012 3007 3008 3011 3013 3011 3010 3011 3012 3010 3010 3008 3007 3004 3001 2999 2999 2996 2992 2991 2990 2990 2990 2987 2983 2981 2973 2970 2965 2961 2957 2954 2949
3003 3002 3000 3000 3000 3001 3000 3000 2999 3000 3002 3001 3002 3006 3005 3002 2999 3003 3005 3006 3004 3001 3002 3002 3002 3001 3002 2999 2997 2996 2996 2994 2991 2987 2986 2986 2985 2985 2979 2975 2968 2963 2963 2959 2955 2950 2947
2990 2990 2990 2989 2990 2992 2992 2990 2990 2990 2993 2993 2992 2996 2997 2994 2993 2996 2997 2997 2998 2997 2994 2994 2994 2995 2995 2994 2992 2991 2989 2989 2986 2983 2982 2982 2980 2975 2972 2969 2964 2960 2958 2956 2955 2955 2945
2982 2981 2979 2979 2979 2980 2981 2982 2981 2981 2983 2984 2984 2988 2989 2986 2986 2988 2990 2991 2990 2990 2990 2990 2990 2987 2988 2987 2987 2986 2985 2983 2981 2980 2978 2978 2975 2971 2968 2965 2962 2958 2957 2957 2955 2950 2944
2972 2972 2971 2970 2970 2968 2970 2972 2972 2972 2974 2975 2975 2978 2981 2980 2980 2981 2982 2983 2982 2982 2982 2980 2979 2981 2981 2982 2983 2983 2981 2979 2978 2975 2972 2972 2970 2968 2969 2964 2960 2957 2956 2953 2950 2946 2943